Stations météo

réclame
Mon MeteoGroup
Görlitz, Allemagne (10499): Température de l'air & dewpoint: 14.10.2018 21:00:00 - 20.10.2018 21:00:00 (CEST)Görlitz, Allemagne (10499): Température de l'air 5cm & Température de l'air -5cm: 14.10.2018 21:00:00 - 20.10.2018 21:00:00 (CEST)Görlitz, Allemagne (10499): Température de l'air -20cm & Température de l'air -100cm: 14.10.2018 21:00:00 - 20.10.2018 21:00:00 (CEST)Görlitz, Allemagne (10499): Vitesse du vent & gusts: 14.10.2018 21:00:00 - 20.10.2018 21:00:00 (CEST)Görlitz, Allemagne (10499): Direction du vent: 14.10.2018 21:00:00 - 20.10.2018 21:00:00 (CEST)Görlitz, Allemagne (10499): reduced air pressure: 14.10.2018 21:00:00 - 20.10.2018 21:00:00 (CEST)Görlitz, Allemagne (10499): visibility: 14.10.2018 21:00:00 - 20.10.2018 21:00:00 (CEST)Görlitz, Allemagne (10499): Ensoleillement: 14.10.2018 21:00:00 - 20.10.2018 21:00:00 (CEST)Görlitz, Allemagne (10499): Quantités de précipitations: 14.10.2018 21:00:00 - 20.10.2018 21:00:00 (CEST)
Date & Time tt [°C] td [°C] tt 5cm [°C] tt -5cm [°C] tt -20cm [°C] tt -100cm [°C] ff [km/h] ff [knt] fx [km/h] fx [knt] dd ppp [hPa] vv [km] sd [min] rr [mm]
20.10.2018 21:00:00 7,2 3,9 6,6 12,1 13,3 14,9 4 2 7 4 SW 1029,3 22 0 0,0
20.10.2018 20:00:00 7,4 4,0 6,8 12,3 13,4 15,0 3 1 6 3 WSW 1029,0 25 0 0,0
20.10.2018 19:00:00 7,0 3,4 6,3 12,6 13,4 15,0 4 2 10 5 WNW 1028,8 35 0 0,0
20.10.2018 18:00:00 8,7 3,0 6,9 12,9 13,4 15,0 5 3 18 10 NNW 1028,6 40 6 0,0
20.10.2018 17:00:00 9,7 3,0 9,5 13,1 13,4 15,0 14 8 22 12 N 1028,5 45 0 0,0
20.10.2018 16:00:00 10,3 2,5 10,8 13,2 13,3 15,0 10 5 26 14 NW 1028,2 45 22 0,0
20.10.2018 15:00:00 9,8 2,3 10,1 13,1 13,3 15,0 13 7 27 15 NW 1028,6 45 10 0,0
20.10.2018 14:00:00 9,8 2,9 10,8 12,9 13,2 15,0 13 7 28 15 NNW 1028,8 45 5 0,0
20.10.2018 13:00:00 10,1 4,6 12,8 12,5 13,2 15,0 11 6 19 10 NNW 1028,7 40 47 0,0
20.10.2018 12:00:00 9,2 3,9 10,3 12,3 13,2 15,0 9 5 18 10 NNW 1029,1 35 9 0,0
20.10.2018 11:00:00 8,5 5,2 8,9 12,1 13,3 15,0 8 4 16 9 NW 1029,2 30 0 0,0
20.10.2018 10:00:00 8,3 5,4 8,9 12,0 13,4 15,0 8 5 15 8 NW 1028,7 20 41 0,0
20.10.2018 09:00:00 7,6 6,3 8,6 12,1 13,5 15,0 6 4 12 7 WNW 1028,0 17 5 0,0
20.10.2018 08:00:00 7,5 5,8 6,2 12,3 13,6 15,0 9 5 13 7 NW 1027,5 13 0 0,0
20.10.2018 07:00:00 8,4 7,7 7,6 12,5 13,6 15,0 4 2 11 6 WNW 1027,0 7 0 0,0
20.10.2018 06:00:00 9,0 8,5 8,5 12,7 13,7 15,0 6 3 12 6 WNW 1026,6 6 0 0,0
20.10.2018 05:00:00 9,4 8,9 8,8 12,8 13,8 15,0 5 3 7 4 W 1026,2 6 0 0,0
20.10.2018 04:00:00 9,7 9,1 9,4 13,0 13,8 15,0 2 1 8 4 WNW 1025,8 8 0 0,0
20.10.2018 03:00:00 9,8 8,8 9,7 13,0 13,8 15,0 4 2 8 5 W 1025,9 10 0 0,0
20.10.2018 02:00:00 10,2 9,4 10,2 13,1 13,9 15,0 5 3 7 4 W 1026,0 13 0 0,0
20.10.2018 01:00:00 10,3 9,8 10,3 13,2 13,9 15,1 0 0 4 2 N 1025,9 12 0 0,0
20.10.2018 00:00:00 10,3 9,9 10,3 13,2 14,0 15,1 3 2 6 4 NNW 1025,9 6 0 0,0
19.10.2018 23:00:00 10,4 10,0 10,5 13,3 14,0 15,1 4 2 5 3 WNW 1025,9 3,5 0 0,0
19.10.2018 22:00:00 10,4 9,9 10,4 13,3 14,1 15,1 0 0 4 2 N 1025,9 4,0 0 0,0
19.10.2018 21:00:00 10,5 10,2 10,5 13,4 14,1 15,1 0 0 6 3 N 1025,6 6 0 0,0
19.10.2018 20:00:00 10,4 9,9 10,4 13,5 14,2 15,1 4 2 10 6 NW 1025,1 4,2 0 0,0
19.10.2018 19:00:00 10,4 10,2 10,6 13,6 14,2 15,1 11 6 14 7 N 1024,9 0,7 0 0,0
19.10.2018 18:00:00 10,5 10,4 10,7 13,7 14,2 15,1 5 3 10 5 NW 1024,7 0,4 0 0,0
19.10.2018 17:00:00 10,6 10,6 10,9 13,8 14,2 15,1 4 2 10 5 NW 1024,6 0,7 0 0,0
19.10.2018 16:00:00 10,6 10,5 11,0 13,8 14,2 15,1 7 4 13 7 NW 1024,8 1,4 0 0,0
19.10.2018 15:00:00 10,8 10,5 11,4 13,8 14,2 15,1 6 4 14 8 NNW 1024,8 2,8 0 0,2
19.10.2018 14:00:00 11,0 10,6 11,6 13,8 14,2 15,1 7 4 13 7 NW 1025,1 2,8 0 0,2
19.10.2018 13:00:00 10,8 10,6 11,4 13,7 14,2 15,1 6 3 14 8 NW 1025,2 2,3 0 0,1
19.10.2018 12:00:00 10,8 10,6 11,3 13,7 14,3 15,1 5 3 14 8 NNW 1025,3 2,3 0 -
19.10.2018 11:00:00 10,9 10,9 11,3 13,7 14,3 15,1 8 4 14 8 NNW 1024,9 1,3 0 0,1
19.10.2018 10:00:00 10,7 10,7 11,1 13,8 14,3 15,1 8 5 16 9 NNW 1024,6 0,8 0 0,0
19.10.2018 09:00:00 11,3 11,3 11,6 13,8 14,4 15,1 10 5 13 7 N 1024,0 0,7 0 0,1
19.10.2018 08:00:00 11,6 11,6 11,8 13,8 14,4 15,1 5 3 8 4 NW 1023,5 0,7 0 0,1
19.10.2018 07:00:00 11,6 11,5 11,8 13,8 14,4 15,1 3 2 6 3 W 1023,1 0,7 0 0,1
19.10.2018 06:00:00 11,6 11,5 11,7 13,8 14,5 15,1 3 2 7 4 WNW 1023,1 1,2 0 0,0
19.10.2018 05:00:00 11,4 11,1 11,5 13,9 14,5 15,1 4 2 7 4 W 1023,0 3,0 0 0,0
19.10.2018 04:00:00 11,3 11,0 11,4 13,9 14,6 15,1 3 1 6 3 W 1023,1 1,5 0 0,0
19.10.2018 03:00:00 11,2 11,1 11,4 13,9 14,6 15,1 5 3 7 4 WSW 1023,1 0,7 0 0,0
19.10.2018 02:00:00 11,0 11,0 11,2 14,0 14,7 15,1 5 3 8 5 W 1023,4 0,3 0 0,0
19.10.2018 01:00:00 10,9 10,9 11,1 14,0 14,8 15,2 6 3 16 9 W 1023,6 0,5 0 0,0
19.10.2018 00:00:00 10,7 10,5 10,9 14,0 14,9 15,2 10 5 22 12 WNW 1023,4 1,2 0 0,0
18.10.2018 23:00:00 10,9 10,1 10,8 14,2 15,0 15,2 10 6 21 11 WNW 1023,0 3,5 0 0,0
18.10.2018 22:00:00 10,9 9,4 9,8 14,5 15,1 15,2 10 5 17 9 W 1022,6 4,0 0 0,0
18.10.2018 21:00:00 11,7 9,0 10,4 14,8 15,2 15,2 10 5 16 9 W 1022,1 5 0 0,0
18.10.2018 20:00:00 11,8 9,1 9,4 15,3 15,2 15,2 7 4 9 5 WNW 1021,4 6 0 0,0
18.10.2018 19:00:00 12,9 9,4 10,4 15,7 15,1 15,2 6 3 9 5 W 1021,0 7 0 0,0
18.10.2018 18:00:00 15,0 9,8 12,8 16,1 15,0 15,2 6 3 14 8 WNW 1020,3 10 3 0,0
18.10.2018 17:00:00 16,5 10,1 16,2 16,2 14,8 15,2 8 5 19 10 NW 1019,9 9 60 0,0
18.10.2018 16:00:00 17,5 10,4 18,2 16,1 14,5 15,2 9 5 25 14 NNW 1019,6 9 60 0,0
18.10.2018 15:00:00 17,8 9,6 18,9 15,7 14,3 15,2 14 7 22 12 NNW 1019,3 8 60 0,0
18.10.2018 14:00:00 18,4 9,5 20,9 15,0 14,0 15,2 8 4 16 9 WNW 1019,1 9 60 0,0
18.10.2018 13:00:00 17,2 9,3 19,9 14,2 13,9 15,2 8 5 16 9 NW 1019,5 9 60 0,0
18.10.2018 12:00:00 16,3 8,8 22,1 13,4 13,8 15,2 4 2 11 6 W 1020,0 8 60 0,0
18.10.2018 11:00:00 15,0 9,2 18,9 12,8 13,9 15,2 6 4 10 6 W 1020,3 8 60 0,0
18.10.2018 10:00:00 13,1 9,2 16,2 12,4 13,9 15,2 7 4 10 5 WSW 1020,6 8 60 0,0
18.10.2018 09:00:00 9,6 7,5 10,2 12,3 14,1 15,2 8 4 13 7 WSW 1020,6 9 32 0,0
18.10.2018 08:00:00 7,8 7,0 6,1 12,5 14,2 15,2 4 2 13 7 SSW 1020,4 9 0 0,0
18.10.2018 07:00:00 8,7 7,2 6,5 12,7 14,4 15,2 9 5 11 6 WSW 1019,8 8 0 0,0
18.10.2018 06:00:00 7,3 6,8 5,3 12,9 14,6 15,2 4 2 8 4 SW 1019,8 12 0 0,0
18.10.2018 05:00:00 7,8 7,1 5,0 13,1 14,7 15,2 5 3 6 3 SW 1019,8 12 0 0,0
18.10.2018 04:00:00 8,3 7,4 6,2 13,3 14,9 15,2 0 0 6 4 N 1019,8 12 0 0,0
18.10.2018 03:00:00 9,2 7,8 6,1 13,6 15,0 15,2 3 2 7 4 ESE 1019,9 12 0 0,0
18.10.2018 02:00:00 9,2 7,9 5,9 13,9 15,2 15,2 2 1 5 3 W 1020,1 12 0 0,0
18.10.2018 01:00:00 9,2 7,8 6,5 14,2 15,4 15,2 2 1 10 5 SSE 1020,2 12 0 0,0
18.10.2018 00:00:00 9,2 7,9 6,1 14,5 15,5 15,2 4 2 5 3 S 1020,3 12 0 0,0
17.10.2018 23:00:00 10,4 8,1 6,6 14,9 15,7 15,2 3 2 6 3 SE 1020,2 12 0 0,0
17.10.2018 22:00:00 10,8 8,1 7,7 15,3 15,8 15,2 6 4 9 5 SW 1020,1 12 0 0,0
17.10.2018 21:00:00 11,6 8,3 8,6 15,8 15,8 15,2 5 3 7 4 W 1019,9 12 0 0,0
17.10.2018 20:00:00 13,1 8,2 10,9 16,3 15,8 15,2 3 2 9 5 SSE 1019,5 19 0 0,0
17.10.2018 19:00:00 16,3 8,5 12,7 16,8 15,7 15,2 8 4 10 5 SE 1019,0 20 0 0,0
17.10.2018 18:00:00 18,1 8,1 14,2 17,2 15,6 15,2 2 1 8 5 SE 1018,6 21 36 0,0
17.10.2018 17:00:00 20,2 9,4 18,7 17,2 15,3 15,2 4 2 12 7 SSE 1018,3 23 60 0,0
17.10.2018 16:00:00 20,2 7,9 20,9 17,0 15,0 15,2 8 4 14 8 S 1018,4 23 60 0,0
17.10.2018 15:00:00 20,3 7,2 22,1 16,5 14,7 15,2 4 2 13 7 ESE 1018,6 25 60 0,0
17.10.2018 14:00:00 19,8 7,1 22,8 15,7 14,5 15,2 9 5 16 9 SSE 1018,9 20 60 0,0
17.10.2018 13:00:00 19,3 7,1 23,1 14,9 14,4 15,2 10 5 21 11 S 1019,2 20 60 0,0
17.10.2018 12:00:00 18,7 7,2 22,0 14,1 14,3 15,2 16 8 23 12 S 1019,7 20 60 0,0
17.10.2018 11:00:00 17,4 6,7 20,6 13,4 14,3 15,2 14 7 20 11 S 1019,8 20 60 0,0
17.10.2018 10:00:00 15,0 6,9 18,2 13,0 14,4 15,2 4 2 7 4 S 1020,2 20 60 0,0
17.10.2018 09:00:00 11,0 6,4 11,7 12,9 14,6 15,2 6 3 11 6 SE 1020,6 19 34 0,0
17.10.2018 08:00:00 9,4 5,5 6,7 13,1 14,7 15,2 10 5 13 7 S 1020,6 16 0 0,0
17.10.2018 07:00:00 8,3 5,5 6,4 13,3 14,8 15,2 12 7 14 7 ESE 1020,7 12 0 0,0
17.10.2018 06:00:00 9,2 6,2 5,9 13,5 15,0 15,2 6 3 13 7 SSE 1020,5 12 0 0,0
17.10.2018 05:00:00 10,6 5,9 8,6 13,7 15,1 15,2 4 2 18 10 S 1020,1 15 0 0,0
17.10.2018 04:00:00 10,9 5,8 7,7 14,0 15,3 15,2 11 6 14 8 SW 1020,2 15 0 0,0
17.10.2018 03:00:00 11,4 6,2 8,5 14,2 15,4 15,2 8 4 13 7 SW 1020,2 15 0 0,0
17.10.2018 02:00:00 12,7 6,7 9,8 14,4 15,6 15,2 10 5 25 14 SSW 1019,9 15 0 0,0
17.10.2018 01:00:00 13,6 7,2 11,3 14,6 15,8 15,2 15 8 19 11 S 1020,0 15 0 0,0
17.10.2018 00:00:00 10,6 6,7 7,4 14,9 15,9 15,2 8 4 10 5 SSW 1020,4 12 0 0,0
16.10.2018 23:00:00 12,3 6,7 8,3 15,3 16,1 15,2 4 2 6 3 SSE 1020,5 12 0 0,0
16.10.2018 22:00:00 10,9 6,5 7,4 15,7 16,2 15,2 4 2 5 3 SW 1020,5 15 0 0,0
16.10.2018 21:00:00 12,4 6,4 8,4 16,2 16,3 15,2 3 2 8 5 WSW 1020,1 15 0 0,0
16.10.2018 20:00:00 14,5 6,6 9,2 16,7 16,4 15,2 3 2 8 4 ESE 1019,8 20 0 0,0
16.10.2018 19:00:00 15,6 6,7 10,5 17,2 16,3 15,2 4 2 12 7 SW 1019,5 20 0 0,0
16.10.2018 18:00:00 17,0 6,5 14,6 17,6 16,1 15,2 9 5 22 12 SW 1018,9 23 0 0,0
16.10.2018 17:00:00 19,4 6,3 19,7 17,8 15,9 15,2 17 9 25 14 SW 1018,4 22 - 0,0
16.10.2018 16:00:00 20,3 6,2 21,9 17,6 15,7 15,2 15 8 23 13 SSW 1018,0 22 60 0,0
16.10.2018 15:00:00 20,2 5,1 - - - - 13 7 26 14 SSW 1018,1 23 60 0,0
16.10.2018 14:00:00 19,9 5,2 23,9 16,6 15,3 15,2 17 9 26 14 SW 1018,2 24 60 0,0
16.10.2018 13:00:00 19,7 5,5 23,3 16,0 15,1 15,2 18 10 30 16 S 1018,2 24 60 0,0
16.10.2018 12:00:00 18,8 4,8 22,1 15,4 15,1 15,2 21 11 32 18 S 1018,2 25 60 0,0
16.10.2018 11:00:00 18,1 4,9 21,2 14,9 15,1 15,2 16 8 35 19 S 1018,5 26 60 0,0
16.10.2018 10:00:00 16,9 4,6 18,2 14,5 15,1 15,2 24 13 35 19 S 1018,5 26 60 0,0
16.10.2018 09:00:00 15,8 4,6 17,5 14,4 15,2 15,2 10 5 19 10 SW 1018,6 30 44 0,0
16.10.2018 08:00:00 14,2 4,2 13,0 14,5 15,3 15,2 14 7 18 10 SW 1018,5 27 0 0,0
16.10.2018 07:00:00 13,3 4,3 11,0 14,6 15,3 15,2 10 5 14 7 SW 1018,3 23 0 0,0
16.10.2018 06:00:00 14,7 4,5 11,4 14,8 15,4 15,2 10 6 14 7 WSW 1018,0 20 0 0,0
16.10.2018 05:00:00 15,7 5,2 13,4 14,9 15,5 15,2 6 3 20 11 SE 1017,6 20 0 0,0
16.10.2018 04:00:00 16,0 4,8 14,3 15,1 15,5 15,2 11 6 23 13 S 1017,5 20 0 0,0
16.10.2018 03:00:00 16,4 4,6 14,9 15,1 15,6 15,2 23 12 36 19 S 1017,8 20 0 0,0
16.10.2018 02:00:00 16,4 4,9 15,1 15,3 15,7 15,2 21 12 30 16 S 1017,8 20 0 0,0
16.10.2018 01:00:00 16,8 5,3 15,0 15,4 15,7 15,2 9 5 18 10 SSW 1018,0 20 0 0,0
16.10.2018 00:00:00 16,8 5,8 15,0 15,6 15,8 15,2 14 8 49 26 S 1017,8 20 0 0,0
15.10.2018 23:00:00 17,5 6,0 16,5 15,6 15,8 15,2 31 17 45 24 S 1017,5 20 0 0,0
15.10.2018 22:00:00 17,7 6,1 16,5 15,7 15,9 15,2 27 14 51 28 S 1017,5 20 0 0,0
15.10.2018 21:00:00 18,0 5,5 16,3 15,9 15,9 15,2 25 14 40 22 S 1017,3 20 0 0,0
15.10.2018 20:00:00 18,4 5,6 16,5 16,2 15,9 15,2 21 12 31 17 S 1017,2 25 0 0,0
15.10.2018 19:00:00 18,9 5,8 16,2 16,5 15,9 15,2 15 8 22 12 SSE 1017,1 30 0 0,0
15.10.2018 18:00:00 20,1 5,5 18,4 16,6 15,8 15,2 9 5 47 25 ENE 1016,7 35 5 0,0
15.10.2018 17:00:00 21,1 4,7 20,3 16,7 15,7 15,2 30 16 46 25 S 1015,8 35 33 0,0
15.10.2018 16:00:00 22,1 3,6 22,9 16,6 15,6 15,2 36 19 48 26 S 1015,8 35 30 0,0
15.10.2018 15:00:00 20,6 3,0 19,7 16,6 15,4 15,2 31 17 44 24 S 1016,2 35 6 0,0
15.10.2018 14:00:00 21,4 2,2 22,1 16,2 15,3 15,2 33 18 46 25 S 1016,8 35 60 0,0
15.10.2018 13:00:00 21,2 2,1 23,3 15,5 15,2 15,2 30 16 50 27 S 1017,1 30 47 0,0
15.10.2018 12:00:00 19,1 1,4 19,4 15,2 15,2 15,2 30 16 52 28 S 1017,7 30 9 0,0
15.10.2018 11:00:00 18,3 1,0 18,8 14,9 15,2 15,2 37 20 55 30 SSW 1017,2 30 1 0,0
15.10.2018 10:00:00 17,2 1,4 17,2 14,7 15,2 15,2 29 16 49 27 S 1017,5 28 0 0,0
15.10.2018 09:00:00 16,7 0,1 16,1 14,6 15,3 15,2 38 21 59 32 S 1016,7 28 31 0,0
15.10.2018 08:00:00 16,6 -0,1 15,9 14,6 15,3 15,1 48 26 66 36 S 1015,7 26 6 0,0
15.10.2018 07:00:00 16,1 0,7 15,0 14,6 15,4 15,1 33 18 52 28 S 1016,2 30 0 0,0
15.10.2018 06:00:00 15,9 1,6 14,7 14,6 15,5 15,1 37 20 49 26 S 1016,2 30 0 0,0
15.10.2018 05:00:00 14,8 2,8 12,5 14,8 15,7 15,1 19 10 28 15 SSE 1017,4 33 0 0,0
15.10.2018 04:00:00 15,9 2,9 13,2 15,0 15,8 15,1 14 8 37 20 SSE 1017,4 38 0 0,0
15.10.2018 03:00:00 16,3 3,2 13,1 15,3 15,9 15,1 11 6 29 15 SE 1017,6 40 0 0,0
15.10.2018 02:00:00 17,4 2,4 14,9 15,5 15,9 15,1 11 6 51 28 E 1017,2 45 0 0,0
15.10.2018 01:00:00 17,8 3,0 16,0 15,7 16,0 15,1 27 15 42 23 S 1016,4 45 0 0,0
15.10.2018 00:00:00 18,1 3,6 16,6 15,8 16,1 15,1 34 18 51 28 S 1016,2 45 0 0,0
14.10.2018 23:00:00 17,8 4,3 15,9 16,0 16,2 15,1 29 16 43 23 S 1016,4 50 0 0,0
14.10.2018 22:00:00 18,3 3,7 16,4 16,3 16,3 15,1 25 13 42 23 S 1016,5 50 0 0,0
14.10.2018 21:00:00 19,0 3,2 16,4 16,6 16,3 15,1 7 4 38 21 S 1016,7 50 0 0,0

tt = Température de l'air
td = dewpoint
tt 5cm = Température de l'air 5cm
tt -5cm = Température de l'air -5cm
tt -20cm = Température de l'air -20cm
tt -100cm = Température de l'air -100cm
ff = Vitesse du vent
fx = gusts
dd = Direction du vent
ppp = reduced air pressure
vv = visibility
sd = Ensoleillement
rr = Quantités de précipitations

stations d'obs. à proximité